This is the latest recevied weather packets stored in our database for station/object VU3ZAG-13. If no packets are shown the sender has not sent any weather packets the latest 1 day(s).
| Time | Temp. | Humidity | Pressure | Rain* | Wind** | Luminosity | Snow |
|---|---|---|---|---|---|---|---|
| 1777977277 | 32.78° C | 31% | - | 0 mm | 1.34 m/s, 312° | - | - |
| 1777976968 | 32.78° C | 31% | - | 0 mm | 2.68 m/s, 271° | - | - |
| 1777976659 | 32.78° C | 30% | - | 0 mm | 3.13 m/s, 271° | - | - |
| 1777976350 | 32.78° C | 30% | - | 0 mm | 1.79 m/s, 348° | - | - |
| 1777976041 | 32.78° C | 31% | - | 0 mm | 1.79 m/s, 318° | - | - |
| 1777975733 | 32.78° C | 31% | - | 0 mm | 2.68 m/s, 292° | - | - |
| 1777975424 | 32.22° C | 31% | - | 0 mm | 3.58 m/s, 316° | - | - |
| 1777975116 | 32.78° C | 31% | - | 0 mm | 2.24 m/s, 314° | - | - |
| 1777974807 | 32.22° C | 30% | - | 0 mm | 2.68 m/s, 302° | - | - |
| 1777974498 | 32.22° C | 29% | - | 0 mm | 1.34 m/s, 331° | - | - |
| 1777974190 | 32.22° C | 29% | - | 0 mm | 1.79 m/s, 312° | - | - |
| 1777973881 | 32.22° C | 28% | - | 0 mm | 1.34 m/s, 308° | - | - |
| 1777973573 | 32.22° C | 28% | - | 0 mm | 2.68 m/s, 303° | - | - |
| 1777973264 | 32.22° C | 30% | - | 0 mm | 0.89 m/s, 300° | - | - |
| 1777972955 | 32.22° C | 30% | - | 0 mm | 3.13 m/s, 288° | - | - |
| 1777972647 | 32.22° C | 29% | - | 0 mm | 2.68 m/s, 326° | - | - |
| 1777972338 | 32.22° C | 30% | - | 0 mm | 2.24 m/s, 314° | - | - |
| 1777972029 | 32.78° C | 30% | - | 0 mm | 2.24 m/s, 288° | - | - |
| 1777971721 | 32.78° C | 28% | - | 0 mm | 1.34 m/s, 270° | - | - |
| 1777971412 | 32.22° C | 27% | - | 0 mm | 3.58 m/s, 306° | - | - |
| 1777971103 | 32.22° C | 31% | - | 0 mm | 2.24 m/s, 323° | - | - |
| 1777970794 | 32.22° C | 31% | - | 0 mm | 4.02 m/s, 326° | - | - |
| 1777970485 | 32.22° C | 28% | - | 0 mm | 2.24 m/s, 302° | - | - |
| 1777970175 | 32.22° C | 27% | - | 0 mm | 1.34 m/s, 318° | - | - |
| 1777969867 | 32.22° C | 27% | - | 0 mm | 1.79 m/s, 347° | - | - |
* Rain since midnight (hover to see other rain measurements)
** Current wind speed in m/s (hover to see current wind gust speed)